Location: Barrio Las Umbrías
(40.4173°N, 4.8685°W)
Time: 11:40:49
(UTC+00:00)

Cosmos 1844 - Pass Details

Date: 17 August 2022
Orbit: 824 x 866 km, 70.9° (Epoch: 28 September)

Event Time Altitude Azimuth Distance (km) Brightness Sun altitude
Rises 19:53:20 0° 181° (S) 3,429 6.6 -7.7°
Reaches altitude 10° 19:55:55 10° 174° (S) 2,494 5.9 -8.2°
Maximum altitude 20:01:14 41° 106° (ESE) 1,227 4.1 -9.1°
Drops below altitude 10° 20:06:34 10° 38° (NE) 2,490 6.0 -10.0°
Sets 20:09:08 0° 31° (NNE) 3,424 6.8 -10.4°
